Location: DARK SKY Beskydy - Park tmavé oblohy, www.darkskybeskydy.cz
(49.4926°N, 18.5016°E)
Time: 18:02:21
(UTC+02:00)

PCSat - Pass Details

Date: 07 August 2024
Orbit: 781 x 793 km, 67.1° (Epoch: 08 September)

Event Time Altitude Azimuth Distance (km) Brightness Sun altitude
Rises 02:38:23 0° 325° (NW) 3,301 13.2 -20.1°
Reaches altitude 10° 02:40:50 10° 327° (NNW) 2,369 12.4 -19.9°
Maximum altitude 02:46:15 70° 52° (NE) 844 9.8 -19.5°
Drops below altitude 10° 02:51:39 10° 136° (SE) 2,353 11.9 -19.0°
Sets 02:54:04 0° 139° (SE) 3,278 12.6 -18.8°
